Home > Weather > Hilo > Past weeks

Flag for U.S.A. Weather for the Past 2 Weeks in Hilo, Hawaii, U.S.A.

Now
66 °F

Clear.


Feels Like: 66 °F
Forecast: 66 / 83 °F
Wind: 9 mph from Southwest

Location: Hilo International Airport

Current Time: Feb 14, 2016 at 5:27:31 AM

Latest Report: Feb 14, 2016 at 4:53 AM


Visibility: 10 mi

Pressure: 30.06 "Hg

Humidity: 73%

Dew point: 57 °F

Location of HiloLocation

Historic Weather in Hilo — Graph

°F

Hilo Temperature Yesterday

Maximum temperature yesterday: 85 °F (at 12:53 PM)
Minimum temperature yesterday: 67 °F (at 12:53 AM)
Average temperature yesterday: 75 °F

High & Low Weather Summary for the Past Weeks

 TemperatureHumidityPressure
High86 °F (Jan 30, 11:53 AM)94% (Feb 1, 8:21 PM)30.16 "Hg (Feb 1, 8:21 PM)
Low61 °F (Feb 8, 5:53 AM)39% (Jan 30, 11:53 AM)29.88 "Hg (Feb 6, 3:53 PM)
Average72 °F71%30.04 "Hg
* Reported Jan 30 3:33 AM — Feb 14 3:53 AM, Hilo, Weather by CustomWeather, © 2016

Note: Actual official high and low records may vary slightly from our data, if they occured in-between our weather recording intervals... More about our weather records

Advertising

Hilo Weather History for the Previous 24 Hours

 ConditionsComfort  
Time TempWeatherWind HumidityBarometerVisibility
3:53 AM
Sun, Feb 14
66 °FClear.8 mph73%30.06 "Hg10 mi
2:53 AM66 °FClear.9 mph73%30.07 "Hg10 mi
1:53 AM68 °FPassing clouds.7 mph82%30.09 "Hg10 mi
12:53 AM69 °FPassing clouds.7 mph73%30.09 "Hg10 mi
11:53 PM
Sat, Feb 13
69 °FClear.8 mph76%30.10 "Hg10 mi
10:53 PM69 °FClear.5 mph79%30.11 "Hg10 mi
9:53 PM71 °FPassing clouds.5 mph81%30.11 "Hg10 mi
8:53 PM72 °FPassing clouds.5 mph81%30.10 "Hg10 mi
7:53 PM74 °FPassing clouds.5 mph79%30.09 "Hg10 mi
6:53 PM75 °FPartly cloudy.3 mph76%30.06 "Hg10 mi
5:53 PM77 °FPassing clouds.6 mph69%30.04 "Hg10 mi
4:53 PM79 °FScattered clouds.9 mph65%30.03 "Hg10 mi
3:53 PM81 °FScattered clouds.10 mph60%30.03 "Hg10 mi
2:53 PM84 °FScattered clouds.12 mph57%30.03 "Hg10 mi
1:53 PM83 °FScattered clouds.14 mph59%30.04 "Hg10 mi
12:53 PM85 °FScattered clouds.10 mph55%30.06 "Hg10 mi
11:53 AM84 °FScattered clouds.9 mph55%30.09 "Hg10 mi
10:53 AM82 °FScattered clouds.5 mph60%30.11 "Hg10 mi
9:53 AM80 °FBroken clouds.6 mph62%30.13 "Hg10 mi
8:53 AM76 °FBroken clouds.8 mph69%30.13 "Hg10 mi
7:53 AM70 °FBroken clouds.9 mph81%30.11 "Hg10 mi
6:53 AM69 °FMore clouds than sun.3 mph90%30.10 "Hg10 mi
5:53 AM68 °FPassing clouds.No wind78%30.08 "Hg10 mi
Weather by CustomWeather, © 2016

See weather overviewHow to use our weather pages